Content
SEND FEEDBACK

Daily
Averages
Monthly
Summary
United States of America

ZAP, NORTH DAKOTA


Home > North America > United States > North Dakota
Elevation: 1940 feet     Latitude: 47 16N     Longitude: 101 47W

WEATHER
 
SELECT A DAY
Number of Records: 90,149;   Date Range: 11/18/10 - 9/30/14
 
SHARE

PRINT THIS DATA

[ ← Previous Day ]
WEATHER ALMANAC - JANUARY 31, 2013
[ Next Day → ]
[ °C ]   °F
Weather ElementAverageHighLow
Temperature-12.1 °F (11:15 am)-16.6 °F (4:35 am)
Dewpoint-22 °F (11:15 am)-27.4 °F (5:15 am)
Humidity59.8 %70 % (11:15 pm)53 % (3:15 am)
Barometer30.24 in30.33 in (10:35 am)30.07 in (12:35 am)
Wind Speed13.3 mph24.2 mph (1:35 am)
Wind Gust29.9 mph (1:15 am)
Weather ElementAverage
Visibility9 mi
Wind DirectionWSW (261.6 °)

Weather ElementTotal
Precipitation0.03 in
Heating Degree Days73.3 (Base 65)
Averaged from 68 records on January 31, 2013
WEATHER CONDITIONS BREAKOUT
WIND DIRECTION BREAKOUT
WEATHER BY HOUR - JANUARY 31, 2013
[ °C ]   °F
Local TimeTemperatureDewpointHumidityBarometerVisibilityWind DirectionWind SpeedGust SpeedPrecipitationEventsConditions
12:35 AM-9.4 °F-20.2 °F59 %30.07 in8.0 miNW (320°)15.0 mphOvercast
12:55 AM-9.4 °F-18.4 °F65 %30.07 in3.0 miNNW (330°)21.9 mph26.5 mphSnowLight Snow
1:15 AM-11.2 °F-20.2 °F64 %30.08 in2.5 miNW (310°)21.9 mph29.9 mphSnowLight Snow
1:35 AM-11.2 °F-20.2 °F64 %30.09 in1.8 miNW (320°)24.2 mph27.6 mph0.01 inSnowLight Snow
1:55 AM-11.2 °F-22.0 °F59 %30.10 in2.5 miNNW (330°)20.7 mph28.8 mph0.02 inRainLight Rain
2:15 AM-13.0 °F-22.0 °F64 %30.12 in3.0 miNNW (330°)17.3 mph23.0 mphSnowLight Snow
2:35 AM-13.0 °F-22.0 °F64 %30.13 in3.0 miNW (320°)19.6 mph28.8 mphSnowLight Snow
2:55 AM-13.0 °F-23.8 °F59 %30.14 in4.0 miNNW (330°)23.0 mph28.8 mphHaze
3:15 AM-13.0 °F-25.6 °F53 %30.15 in10.0 miNNW (330°)19.6 mph26.5 mphOvercast
3:35 AM-14.8 °F-25.6 °F58 %30.16 in10.0 miNW (320°)17.3 mph23.0 mphMostly Cloudy
3:55 AM-14.8 °F-25.6 °F58 %30.17 in10.0 miNW (320°)16.1 mph23.0 mphMostly Cloudy
4:15 AM-14.8 °F-25.6 °F58 %30.17 in5.0 miNW (320°)24.2 mph29.9 mphHaze
4:35 AM-16.6 °F-25.6 °F64 %30.18 in9.0 miNW (320°)24.2 mph29.9 mphMostly Cloudy
4:55 AM-16.6 °F-25.6 °F64 %30.19 in10.0 miNW (320°)21.9 mph27.6 mphScattered Clouds
5:15 AM-16.6 °F-27.4 °F58 %30.20 in10.0 miNW (310°)23.0 mph29.9 mphScattered Clouds
5:35 AM-16.6 °F-27.4 °F58 %30.21 in9.0 miNW (320°)23.0 mphScattered Clouds
5:55 AM-16.6 °F-27.4 °F58 %30.22 in10.0 miNW (310°)17.3 mph21.9 mphPartly Cloudy
6:15 AM-16.6 °F-27.4 °F58 %30.23 in10.0 miNW (310°)16.1 mphPartly Cloudy
6:35 AM-16.6 °F-27.4 °F58 %30.24 in10.0 miNW (310°)17.3 mph21.9 mphClear
6:55 AM-16.6 °F-25.6 °F64 %30.25 in10.0 miNW (310°)19.6 mph25.3 mphPartly Cloudy
7:15 AM-16.6 °F-25.6 °F64 %30.26 in10.0 miNW (310°)21.9 mph27.6 mphPartly Cloudy
7:35 AM-16.6 °F-25.6 °F64 %30.27 in10.0 miNW (310°)19.6 mphClear
7:55 AM-16.6 °F-25.6 °F64 %30.27 in10.0 miNW (310°)19.6 mphPartly Cloudy
8:15 AM-16.6 °F-25.6 °F64 %30.28 in10.0 miWNW (300°)19.6 mphScattered Clouds
8:35 AM-16.6 °F-25.6 °F64 %30.28 in8.0 miWNW (300°)15.0 mphScattered Clouds
8:55 AM-16.6 °F-27.4 °F58 %30.29 in10.0 miWNW (290°)8.1 mphPartly Cloudy
9:15 AM-16.6 °F-25.6 °F64 %30.29 in10.0 miWest (280°)10.4 mphClear
9:35 AM-14.8 °F-25.6 °F58 %30.30 in10.0 miWNW (300°)16.1 mph23.0 mphClear
9:55 AM-13.0 °F-25.6 °F53 %30.31 in10.0 miNW (310°)11.5 mph20.7 mphClear
10:15 AM-13.0 °F-25.6 °F53 %30.32 in10.0 miNW (320°)17.3 mphClear
10:35 AM-13.0 °F-25.6 °F53 %30.33 in10.0 miNW (320°)20.7 mph24.2 mphPartly Cloudy
10:55 AM-13.0 °F-23.8 °F59 %30.33 in10.0 miNW (310°)19.6 mph25.3 mphScattered Clouds
11:15 AM0.0 °F0.0 °F30.33 in10.0 miWest (280°)15.0 mphScattered Clouds
11:35 AM-11.2 °F-23.8 °F54 %30.33 in10.0 miWNW (290°)12.7 mphScattered Clouds
11:55 AM-11.2 °F-23.8 °F54 %30.33 in10.0 miNW (310°)12.7 mphMostly Cloudy
12:15 PM-11.2 °F-22.0 °F59 %30.33 in10.0 miNW (310°)17.3 mph20.7 mphScattered Clouds
12:35 PM-9.4 °F-22.0 °F54 %30.32 in10.0 miNW (310°)16.1 mphScattered Clouds
12:55 PM-9.4 °F-22.0 °F54 %30.32 in10.0 miNW (320°)12.7 mphScattered Clouds
1:15 PM-9.4 °F-22.0 °F54 %30.31 in10.0 miNW (310°)12.7 mphScattered Clouds
1:35 PM-9.4 °F-20.2 °F59 %30.30 in10.0 miWNW (290°)12.7 mphPartly Cloudy
1:55 PM-7.6 °F-20.2 °F54 %30.30 in10.0 miNW (310°)13.8 mphMostly Cloudy
2:15 PM-7.6 °F-20.2 °F54 %30.29 in10.0 miWNW (300°)12.7 mphScattered Clouds
2:35 PM-7.6 °F-18.4 °F59 %30.28 in5.0 miWNW (290°)11.5 mphHaze
2:55 PM-7.6 °F-18.4 °F59 %30.28 in9.0 miNW (310°)11.5 mphClear
3:15 PM-7.6 °F-18.4 °F59 %30.28 in10.0 miWNW (290°)10.4 mphPartly Cloudy
3:35 PM-7.6 °F-18.4 °F59 %30.27 in10.0 miWest (270°)12.7 mphPartly Cloudy
3:55 PM-7.6 °F-18.4 °F59 %30.27 in10.0 miWest (280°)13.8 mphPartly Cloudy
4:15 PM-5.8 °F-18.4 °F55 %30.27 in10.0 miWest (270°)13.8 mphClear
4:35 PM-7.6 °F-18.4 °F59 %30.27 in10.0 miWest (260°)13.8 mphClear
4:55 PM-7.6 °F-18.4 °F59 %30.27 in10.0 miWest (280°)12.7 mphPartly Cloudy
5:15 PM-7.6 °F-20.2 °F54 %30.26 in10.0 miWest (270°)11.5 mphPartly Cloudy
5:35 PM-7.6 °F-20.2 °F54 %30.26 in10.0 miWest (280°)10.4 mph21.9 mphPartly Cloudy
5:55 PM-9.4 °F-20.2 °F59 %30.25 in10.0 miWest (280°)5.8 mphPartly Cloudy
6:15 PM-9.4 °F-20.2 °F59 %30.26 in10.0 miWest (280°)6.9 mphScattered Clouds
6:35 PM-11.2 °F-22.0 °F59 %30.25 in10.0 miWest (280°)4.6 mphScattered Clouds
6:55 PM0.0 °F0.0 °F30.26 in10.0 miWest (280°)6.9 mphPartly Cloudy
7:15 PM0.0 °F0.0 °F30.24 in10.0 miSW (230°)3.5 mphScattered Clouds
7:35 PM-13.0 °F-22.0 °F64 %30.24 in10.0 miWSW (240°)3.5 mphScattered Clouds
7:55 PM-14.8 °F-23.8 °F64 %30.24 in10.0 miCalmScattered Clouds
8:15 PM-16.6 °F-25.6 °F64 %30.23 in10.0 miSSE (150°)3.5 mphMostly Cloudy
8:35 PM-16.6 °F-25.6 °F64 %30.22 in10.0 miCalmMostly Cloudy
8:55 PM-16.6 °F-25.6 °F64 %30.22 in10.0 miCalmMostly Cloudy
9:15 PM-16.6 °F-25.6 °F64 %30.21 in10.0 miCalmMostly Cloudy
9:35 PM-16.6 °F-25.6 °F64 %30.20 in10.0 miSouth (170°)3.5 mphOvercast
10:15 PM-16.6 °F-25.6 °F64 %30.19 in10.0 miCalmOvercast
10:35 PM-13.0 °F-22.0 °F64 %30.18 in10.0 miCalmOvercast
11:15 PM-13.0 °F-20.2 °F70 %30.18 in10.0 miCalmOvercast
11:35 PM-11.2 °F-18.4 °F70 %30.16 in10.0 miCalmOvercast
Hourly data recorded from KHZE, located miles away from Zap, North Dakota







STORIES FROM OUR PARTNERS